{"data":{"norad_id":53159,"intl_designator":"2022-083AD","name":"STARLINK-4111","alt_names":[],"object_type":"PAYLOAD","status":"ACTIVE","operator":null,"country":"US","launch_date":"2022-07-17","launch_site_code":"AFETR","launch_vehicle":null,"mission":null,"orbit_class":"UNKNOWN","rcs_meters":null,"size_class":null,"mass_kg":null,"dimensions":null,"purposes":["comms"],"wikipedia_slug":null,"has_3d_model":false,"image_url":null,"decayed_at":null,"tle_current":{"epoch":"2026-05-24T14:52:33.102048Z","epoch_age_seconds":108016,"freshness":"FRESH","line1":"1 53159U 22083AD  26144.61982757  .00000157  00000+0  27966-4 0  9996","line2":"2 53159  53.2134 183.2538 0001221  80.9658 279.1473 15.08836557212821","mean_motion":15.08836557,"eccentricity":0.0001221,"inclination_deg":53.2134,"raan_deg":183.2538,"arg_perigee_deg":80.9658,"mean_anomaly_deg":279.1473,"bstar":2.7966e-5,"rev_number":21282,"period_min":95.437772455827,"perigee_km":538.90923837726,"apogee_km":540.59858733818,"semimajor_km":6917.8909128577,"source":"CELESTRAK","updated_at":"2026-05-25T13:38:17.321024Z"}}}